Time,TemperatureF,DewpointF,PressureIn,WindDirection,WindDirectionDegrees,WindSpeedMPH,WindSpeedGustMPH,Humidity,HourlyPrecipIn,Conditions,Clouds,dailyrainin,SoftwareType,DateUTC
2013-07-17 00:02:00,78.0,74.0,30.26,South,177,1.0,11.0,87,0.00,,,0.00,,2013-07-17 05:02:00,
2013-07-17 00:11:00,78.0,74.0,30.26,South,183,1.0,11.0,87,0.00,,,0.00,,2013-07-17 05:11:00,
2013-07-17 00:22:00,78.0,73.0,30.26,SE,126,0.0,2.0,85,0.00,,,0.00,,2013-07-17 05:22:00,
2013-07-17 00:32:00,77.0,72.0,30.26,SE,134,0.0,4.0,85,0.00,,,0.00,,2013-07-17 05:32:00,
2013-07-17 00:43:00,77.0,72.0,30.26,SSE,162,2.0,4.0,85,0.00,,,0.00,,2013-07-17 05:43:00,
2013-07-17 00:52:00,77.0,72.0,30.26,SSE,154,1.0,4.0,85,0.00,,,0.00,,2013-07-17 05:52:00,
2013-07-17 01:01:00,77.0,72.0,30.26,SSE,157,0.0,4.0,85,0.00,,,0.00,,2013-07-17 06:01:00,
2013-07-17 01:11:00,76.0,71.0,30.26,SSE,164,1.0,4.0,85,0.00,,,0.00,,2013-07-17 06:11:00,
2013-07-17 01:22:00,76.0,72.0,30.26,SSE,163,1.0,4.0,87,0.00,,,0.00,,2013-07-17 06:22:00,
2013-07-17 01:32:00,76.0,72.0,30.26,SSE,162,0.0,4.0,87,0.00,,,0.00,,2013-07-17 06:32:00,
2013-07-17 01:43:00,76.0,72.0,30.26,SSE,162,0.0,4.0,87,0.00,,,0.00,,2013-07-17 06:43:00,
2013-07-17 01:52:00,76.0,72.0,30.26,SSE,162,0.0,4.0,87,0.00,,,0.00,,2013-07-17 06:52:00,
2013-07-17 02:01:00,76.0,72.0,30.26,SSE,162,0.0,4.0,87,0.00,,,0.00,,2013-07-17 07:01:00,
2013-07-17 02:11:00,75.0,71.0,30.26,SSE,162,0.0,4.0,87,0.00,,,0.00,,2013-07-17 07:11:00,
2013-07-17 02:22:00,74.0,71.0,30.26,SSE,162,0.0,4.0,89,0.00,,,0.00,,2013-07-17 07:22:00,
2013-07-17 02:32:00,74.0,71.0,30.26,SSE,162,1.0,4.0,89,0.00,,,0.00,,2013-07-17 07:32:00,
2013-07-17 02:42:00,75.0,72.0,30.26,SSW,197,1.0,5.0,89,0.00,,,0.00,,2013-07-17 07:42:00,
2013-07-17 02:52:00,75.0,72.0,30.27,South,179,1.0,5.0,89,0.00,,,0.00,,2013-07-17 07:52:00,
2013-07-17 03:01:00,75.0,72.0,30.27,SSE,150,0.0,5.0,89,0.00,,,0.00,,2013-07-17 08:01:00,
2013-07-17 03:11:00,74.0,71.0,30.27,South,186,0.0,5.0,89,0.00,,,0.00,,2013-07-17 08:11:00,
2013-07-17 03:22:00,74.0,71.0,30.27,South,186,0.0,5.0,89,0.00,,,0.00,,2013-07-17 08:22:00,
2013-07-17 03:32:00,73.0,70.0,30.27,South,186,0.0,5.0,89,0.00,,,0.00,,2013-07-17 08:32:00,
2013-07-17 03:43:00,73.0,70.0,30.27,SE,126,0.0,5.0,89,0.00,,,0.00,,2013-07-17 08:43:00,
2013-07-17 03:53:00,73.0,70.0,30.27,SSE,148,0.0,5.0,89,0.00,,,0.00,,2013-07-17 08:53:00,
2013-07-17 04:02:00,73.0,70.0,30.27,SE,134,0.0,5.0,89,0.00,,,0.00,,2013-07-17 09:02:00,
2013-07-17 04:12:00,73.0,70.0,30.27,SE,134,0.0,5.0,89,0.00,,,0.00,,2013-07-17 09:12:00,
2013-07-17 04:22:00,73.0,70.0,30.27,South,185,0.0,5.0,89,0.00,,,0.00,,2013-07-17 09:22:00,
2013-07-17 04:32:00,72.0,69.0,30.27,South,185,0.0,5.0,89,0.00,,,0.00,,2013-07-17 09:32:00,
2013-07-17 04:43:00,72.0,69.0,30.27,South,185,0.0,5.0,89,0.00,,,0.00,,2013-07-17 09:43:00,
2013-07-17 04:52:00,72.0,69.0,30.27,SSE,167,0.0,5.0,89,0.00,,,0.00,,2013-07-17 09:52:00,
2013-07-17 05:01:00,73.0,70.0,30.27,South,178,1.0,5.0,89,0.00,,,0.00,,2013-07-17 10:01:00,
2013-07-17 05:11:00,73.0,70.0,30.27,South,182,0.0,5.0,89,0.00,,,0.00,,2013-07-17 10:11:00,
2013-07-17 05:22:00,73.0,70.0,30.27,South,182,0.0,5.0,91,0.00,,,0.00,,2013-07-17 10:22:00,
2013-07-17 05:32:00,73.0,70.0,30.27,South,182,0.0,5.0,91,0.00,,,0.00,,2013-07-17 10:32:00,
2013-07-17 05:43:00,72.0,69.0,30.27,South,182,0.0,5.0,91,0.00,,,0.00,,2013-07-17 10:43:00,
2013-07-17 05:52:00,72.0,69.0,30.27,SSW,198,0.0,5.0,91,0.00,,,0.00,,2013-07-17 10:52:00,
2013-07-17 06:01:00,72.0,69.0,30.27,SSW,198,0.0,5.0,91,0.00,,,0.00,,2013-07-17 11:01:00,
2013-07-17 06:11:00,72.0,69.0,30.27,SSW,198,0.0,5.0,91,0.00,,,0.00,,2013-07-17 11:11:00,
2013-07-17 06:22:00,72.0,70.0,30.27,SSW,198,0.0,5.0,94,0.00,,,0.00,,2013-07-17 11:22:00,
2013-07-17 06:32:00,72.0,70.0,30.27,SSW,198,0.0,5.0,94,0.00,,,0.00,,2013-07-17 11:32:00,
2013-07-17 06:42:00,72.0,70.0,30.27,SSW,198,0.0,5.0,94,0.00,,,0.00,,2013-07-17 11:42:00,
2013-07-17 06:52:00,72.0,70.0,30.27,SSW,198,0.0,5.0,94,0.00,,,0.00,,2013-07-17 11:52:00,
2013-07-17 07:01:00,73.0,71.0,30.27,SSW,198,0.0,5.0,94,0.00,,,0.00,,2013-07-17 12:01:00,
2013-07-17 07:12:00,73.0,71.0,30.27,SSW,203,0.0,5.0,94,0.00,,,0.00,,2013-07-17 12:12:00,
2013-07-17 07:22:00,74.0,72.0,30.27,SSW,200,0.0,5.0,94,0.00,,,0.00,,2013-07-17 12:22:00,
2013-07-17 07:32:00,75.0,73.0,30.27,South,191,1.0,5.0,94,0.00,,,0.00,,2013-07-17 12:32:00,
2013-07-17 07:42:00,76.0,74.0,30.28,SSE,152,0.0,5.0,94,0.00,,,0.00,,2013-07-17 12:42:00,
2013-07-17 07:53:00,76.0,74.0,30.28,South,178,0.0,5.0,94,0.00,,,0.00,,2013-07-17 12:53:00,
2013-07-17 08:01:00,77.0,75.0,30.28,SW,219,2.0,5.0,94,0.00,,,0.00,,2013-07-17 13:01:00,
2013-07-17 08:12:00,78.0,76.0,30.28,SSW,206,2.0,6.0,94,0.00,,,0.00,,2013-07-17 13:12:00,
2013-07-17 08:22:00,79.0,74.0,30.28,SSW,200,1.0,7.0,85,0.00,,,0.00,,2013-07-17 13:22:00,
2013-07-17 08:32:00,80.0,75.0,30.28,SSW,209,2.0,7.0,85,0.00,,,0.00,,2013-07-17 13:32:00,
2013-07-17 08:43:00,80.0,75.0,30.28,WSW,237,1.0,7.0,85,0.00,,,0.00,,2013-07-17 13:43:00,
2013-07-17 08:52:00,81.0,76.0,30.28,SSW,209,3.0,7.0,85,0.00,,,0.00,,2013-07-17 13:52:00,
2013-07-17 09:02:00,82.0,77.0,30.28,SW,216,2.0,7.0,85,0.00,,,0.00,,2013-07-17 14:02:00,
2013-07-17 09:11:00,82.0,77.0,30.28,WSW,244,2.0,7.0,85,0.00,,,0.00,,2013-07-17 14:11:00,
2013-07-17 09:22:00,83.0,75.0,30.28,WNW,300,3.0,8.0,78,0.00,,,0.00,,2013-07-17 14:22:00,
2013-07-17 09:32:00,84.0,76.0,30.28,SW,218,5.0,8.0,78,0.00,,,0.00,,2013-07-17 14:32:00,
2013-07-17 09:43:00,84.0,76.0,30.28,SSW,210,1.0,8.0,78,0.00,,,0.00,,2013-07-17 14:43:00,
2013-07-17 09:52:00,84.0,76.0,30.28,WSW,242,1.0,8.0,78,0.00,,,0.00,,2013-07-17 14:52:00,
2013-07-17 10:01:00,85.0,77.0,30.29,WSW,241,1.0,8.0,78,0.00,,,0.00,,2013-07-17 15:01:00,
2013-07-17 10:12:00,85.0,77.0,30.28,NW,323,0.0,8.0,78,0.00,,,0.00,,2013-07-17 15:12:00,
2013-07-17 10:22:00,86.0,76.0,30.29,SSW,207,1.0,8.0,72,0.00,,,0.00,,2013-07-17 15:22:00,
2013-07-17 10:32:00,86.0,76.0,30.29,NNE,14,1.0,8.0,72,0.00,,,0.00,,2013-07-17 15:32:00,
2013-07-17 10:42:00,86.0,76.0,30.29,South,186,2.0,8.0,72,0.00,,,0.00,,2013-07-17 15:42:00,
2013-07-17 10:52:00,87.0,77.0,30.29,West,274,1.0,8.0,72,0.00,,,0.00,,2013-07-17 15:52:00,
2013-07-17 11:02:00,87.0,77.0,30.29,NNE,14,1.0,8.0,72,0.00,,,0.00,,2013-07-17 16:02:00,
2013-07-17 11:11:00,88.0,78.0,30.29,NW,306,2.0,8.0,72,0.00,,,0.00,,2013-07-17 16:11:00,
2013-07-17 11:22:00,89.0,77.0,30.29,SSW,211,2.0,8.0,67,0.00,,,0.00,,2013-07-17 16:22:00,
2013-07-17 11:33:00,89.0,77.0,30.29,WSW,237,1.0,8.0,67,0.00,,,0.00,,2013-07-17 16:33:00,
2013-07-17 11:42:00,89.0,77.0,30.29,NW,308,1.0,8.0,67,0.00,,,0.00,,2013-07-17 16:42:00,
2013-07-17 11:52:00,90.0,78.0,30.29,South,185,0.0,8.0,67,0.00,,,0.00,,2013-07-17 16:52:00,
2013-07-17 12:02:00,90.0,78.0,30.29,West,262,1.0,8.0,67,0.00,,,0.00,,2013-07-17 17:02:00,
2013-07-17 12:11:00,87.0,75.0,30.29,SSW,202,0.0,8.0,67,0.00,,,0.00,,2013-07-17 17:11:00,
2013-07-17 12:22:00,87.0,76.0,30.29,SSW,203,0.0,8.0,69,0.00,,,0.00,,2013-07-17 17:22:00,
2013-07-17 12:32:00,90.0,78.0,30.29,South,186,1.0,8.0,69,0.00,,,0.00,,2013-07-17 17:32:00,
2013-07-17 12:43:00,89.0,77.0,30.29,ESE,103,0.0,8.0,69,0.00,,,0.00,,2013-07-17 17:43:00,
2013-07-17 12:52:00,91.0,79.0,30.29,SE,132,0.0,8.0,69,0.00,,,0.00,,2013-07-17 17:52:00,
2013-07-17 13:01:00,90.0,78.0,30.29,SW,222,1.0,8.0,69,0.00,,,0.00,,2013-07-17 18:01:00,
2013-07-17 13:11:00,88.0,77.0,30.29,WSW,240,0.0,8.0,69,0.00,,,0.00,,2013-07-17 18:11:00,
2013-07-17 13:22:00,87.0,74.0,30.29,West,264,0.0,8.0,65,0.00,,,0.00,,2013-07-17 18:22:00,
2013-07-17 13:32:00,87.0,74.0,30.29,NNW,346,2.0,8.0,65,0.00,,,0.00,,2013-07-17 18:32:00,
2013-07-17 13:43:00,87.0,74.0,30.29,NW,326,0.0,8.0,65,0.00,,,0.00,,2013-07-17 18:43:00,
2013-07-17 13:52:00,89.0,76.0,30.29,North,0,0.0,8.0,65,0.00,,,0.00,,2013-07-17 18:52:00,
2013-07-17 14:01:00,90.0,77.0,30.29,NE,41,2.0,8.0,65,0.00,,,0.00,,2013-07-17 19:01:00,
2013-07-17 14:11:00,91.0,78.0,30.29,West,279,2.0,8.0,65,0.00,,,0.00,,2013-07-17 19:11:00,
2013-07-17 14:22:00,91.0,76.0,30.29,SW,222,1.0,8.0,62,0.00,,,0.00,,2013-07-17 19:22:00,
2013-07-17 14:32:00,90.0,75.0,30.29,West,263,0.0,8.0,62,0.00,,,0.00,,2013-07-17 19:32:00,
2013-07-17 14:43:00,91.0,76.0,30.29,North,5,1.0,8.0,62,0.00,,,0.00,,2013-07-17 19:43:00,
2013-07-17 14:53:00,91.0,76.0,30.29,South,180,1.0,8.0,62,0.00,,,0.00,,2013-07-17 19:53:00,
2013-07-17 15:02:00,91.0,76.0,30.29,SSE,164,0.0,8.0,62,0.00,,,0.00,,2013-07-17 20:02:00,
2013-07-17 15:11:00,89.0,74.0,30.29,SSW,208,0.0,8.0,62,0.00,,,0.00,,2013-07-17 20:11:00,
2013-07-17 15:22:00,92.0,76.0,30.29,NNE,13,1.0,8.0,59,0.00,,,0.00,,2013-07-17 20:22:00,
2013-07-17 15:33:00,92.0,76.0,30.29,WSW,237,0.0,8.0,59,0.00,,,0.00,,2013-07-17 20:33:00,
2013-07-17 15:43:00,91.0,75.0,30.29,SSW,203,0.0,8.0,59,0.00,,,0.00,,2013-07-17 20:43:00,
2013-07-17 15:52:00,93.0,77.0,30.29,East,86,1.0,8.0,59,0.00,,,0.00,,2013-07-17 20:52:00,
2013-07-17 16:02:00,92.0,76.0,30.29,SW,232,0.0,8.0,59,0.00,,,0.00,,2013-07-17 21:02:00,
2013-07-17 16:12:00,91.0,75.0,30.29,SSW,213,0.0,8.0,59,0.00,,,0.00,,2013-07-17 21:12:00,
2013-07-17 16:22:00,92.0,77.0,30.28,SSW,202,1.0,8.0,61,0.00,,,0.00,,2013-07-17 21:22:00,
2013-07-17 16:32:00,93.0,78.0,30.28,SSW,200,1.0,8.0,61,0.00,,,0.00,,2013-07-17 21:32:00,
2013-07-17 16:42:00,93.0,78.0,30.28,WSW,243,5.0,8.0,61,0.00,,,0.00,,2013-07-17 21:42:00,
2013-07-17 16:52:00,94.0,78.0,30.28,SW,217,2.0,8.0,61,0.00,,,0.00,,2013-07-17 21:52:00,
2013-07-17 17:01:00,93.0,78.0,30.28,SSE,166,2.0,8.0,61,0.00,,,0.00,,2013-07-17 22:01:00,
2013-07-17 17:11:00,92.0,77.0,30.28,SSW,202,1.0,8.0,61,0.00,,,0.00,,2013-07-17 22:11:00,
2013-07-17 17:22:00,93.0,78.0,30.28,SSE,158,2.0,8.0,61,0.00,,,0.00,,2013-07-17 22:22:00,
2013-07-17 17:32:00,93.0,78.0,30.28,SSW,208,0.0,8.0,61,0.00,,,0.00,,2013-07-17 22:32:00,
2013-07-17 17:43:00,92.0,77.0,30.27,SSW,208,3.0,8.0,61,0.00,,,0.00,,2013-07-17 22:43:00,
2013-07-17 17:53:00,90.0,75.0,30.27,South,190,1.0,8.0,61,0.00,,,0.00,,2013-07-17 22:53:00,
2013-07-17 18:02:00,92.0,77.0,30.27,SE,144,1.0,8.0,61,0.00,,,0.00,,2013-07-17 23:02:00,
2013-07-17 18:11:00,93.0,78.0,30.27,SSE,159,0.0,8.0,61,0.00,,,0.00,,2013-07-17 23:11:00,
2013-07-17 18:22:00,92.0,77.0,30.27,South,173,1.0,8.0,62,0.00,,,0.00,,2013-07-17 23:22:00,
2013-07-17 18:32:00,92.0,77.0,30.27,SSE,162,1.0,8.0,62,0.00,,,0.00,,2013-07-17 23:32:00,
2013-07-17 18:43:00,92.0,77.0,30.27,SE,131,0.0,8.0,62,0.00,,,0.00,,2013-07-17 23:43:00,
2013-07-17 18:52:00,92.0,77.0,30.27,SSW,194,1.0,8.0,62,0.00,,,0.00,,2013-07-17 23:52:00,
2013-07-17 19:01:00,92.0,77.0,30.27,SSW,199,1.0,8.0,62,0.00,,,0.00,,2013-07-18 00:01:00,
2013-07-17 19:11:00,91.0,76.0,30.26,SSW,200,1.0,32.0,62,0.00,,,0.00,,2013-07-18 00:11:00,
2013-07-17 19:22:00,89.0,76.0,30.26,SSE,151,0.0,32.0,65,0.00,,,0.00,,2013-07-18 00:22:00,
2013-07-17 19:33:00,88.0,75.0,30.26,SSE,151,0.0,32.0,65,0.00,,,0.00,,2013-07-18 00:33:00,
2013-07-17 19:43:00,88.0,75.0,30.26,SSE,151,0.0,32.0,65,0.00,,,0.00,,2013-07-18 00:43:00,
2013-07-17 19:52:00,87.0,74.0,30.26,SSE,151,0.0,32.0,65,0.00,,,0.00,,2013-07-18 00:52:00,
2013-07-17 20:01:00,87.0,74.0,30.26,SSE,151,0.0,32.0,65,0.00,,,0.00,,2013-07-18 01:01:00,
2013-07-17 20:11:00,85.0,72.0,30.26,SSE,151,0.0,32.0,65,0.00,,,0.00,,2013-07-18 01:11:00,
2013-07-17 20:22:00,84.0,76.0,30.26,SSE,151,0.0,32.0,76,0.00,,,0.00,,2013-07-18 01:22:00,
2013-07-17 20:32:00,83.0,75.0,30.26,SSE,151,0.0,32.0,76,0.00,,,0.00,,2013-07-18 01:32:00,
2013-07-17 20:43:00,82.0,74.0,30.25,SSE,151,0.0,32.0,76,0.00,,,0.00,,2013-07-18 01:43:00,
2013-07-17 20:53:00,82.0,74.0,30.25,SSE,151,0.0,32.0,76,0.00,,,0.00,,2013-07-18 01:53:00,
2013-07-17 21:02:00,81.0,73.0,30.25,SSE,151,0.0,32.0,76,0.00,,,0.00,,2013-07-18 02:02:00,
2013-07-17 21:11:00,81.0,73.0,30.25,SSE,151,0.0,32.0,76,0.00,,,0.00,,2013-07-18 02:11:00,
2013-07-17 21:22:00,80.0,76.0,30.24,SSE,151,0.0,32.0,87,0.00,,,0.00,,2013-07-18 02:22:00,
2013-07-17 21:32:00,80.0,76.0,30.24,SSE,151,0.0,32.0,87,0.00,,,0.00,,2013-07-18 02:32:00,
2013-07-17 21:43:00,80.0,76.0,30.24,SSE,151,0.0,32.0,87,0.00,,,0.00,,2013-07-18 02:43:00,
2013-07-17 21:52:00,79.0,75.0,30.24,SSE,151,0.0,32.0,87,0.00,,,0.00,,2013-07-18 02:52:00,
2013-07-17 22:01:00,79.0,75.0,30.24,SSE,151,0.0,32.0,87,0.00,,,0.00,,2013-07-18 03:01:00,
2013-07-17 22:11:00,79.0,75.0,30.24,SSE,151,0.0,32.0,87,0.00,,,0.00,,2013-07-18 03:11:00,
2013-07-17 22:22:00,78.0,74.0,30.24,SSE,151,0.0,32.0,87,0.00,,,0.00,,2013-07-18 03:22:00,
2013-07-17 22:32:00,78.0,74.0,30.24,SSE,151,0.0,32.0,87,0.00,,,0.00,,2013-07-18 03:32:00,
2013-07-17 22:43:00,78.0,74.0,30.24,SSE,151,0.0,32.0,87,0.00,,,0.00,,2013-07-18 03:43:00,
2013-07-17 22:52:00,77.0,73.0,30.24,SSE,151,0.0,32.0,87,0.00,,,0.00,,2013-07-18 03:52:00,
2013-07-17 23:02:00,77.0,73.0,30.24,SSE,151,0.0,32.0,87,0.00,,,0.00,,2013-07-18 04:02:00,
2013-07-17 23:12:00,77.0,73.0,30.24,SSE,151,0.0,32.0,87,0.00,,,0.00,,2013-07-18 04:12:00,
2013-07-17 23:22:00,77.0,72.0,30.24,SSE,151,0.0,32.0,85,0.00,,,0.00,,2013-07-18 04:22:00,
2013-07-17 23:32:00,76.0,71.0,30.23,SSE,151,0.0,32.0,85,0.00,,,0.00,,2013-07-18 04:32:00,
2013-07-17 23:43:00,76.0,71.0,30.24,SSE,151,0.0,32.0,85,0.00,,,0.00,,2013-07-18 04:43:00,
2013-07-17 23:52:00,76.0,71.0,30.23,SSE,151,0.0,32.0,85,0.00,,,0.00,,2013-07-18 04:52:00,